Location: Unspecified
(38.9820°N, 94.4650°W)
Time: 20:06:03
(UTC-06:00)

Cosmos 2058 - Visible Passes

Search period start: 23 January 2019 00:00
Search period end: 02 February 2019 00:00
Orbit: 562 x 585 km, 82.5° (Epoch: 23 January)

Date Brightness Start Highest point End Pass type
(mag) Time Alt. Az. Time Alt. Az. Time Alt. Az.
23 Jan 4.0 06:15:07 10° N 06:19:03 45° E 06:22:58 10° SSE visible
23 Jan 3.9 18:38:18 10° SE 18:41:41 25° E 18:42:06 24° E visible
23 Jan 5.2 20:15:15 10° SW 20:18:24 22° WNW 20:18:24 22° WNW visible
24 Jan 3.4 06:18:05 10° N 06:22:09 62° E 06:26:11 10° SSE visible
24 Jan 3.5 18:40:59 10° SSE 18:44:41 33° E 18:46:40 21° NE visible
24 Jan 5.6 20:18:56 10° WSW 20:21:40 17° WNW 20:22:58 15° NW visible
25 Jan 2.9 06:21:06 10° N 06:25:13 85° E 06:29:19 10° S visible
25 Jan 3.2 18:43:46 10° SSE 18:47:42 44° E 18:51:15 12° NNE visible
25 Jan 6.0 20:22:56 10° W 20:24:51 13° WNW 20:26:46 10° NW visible
26 Jan 2.8 06:24:11 10° NNW 06:28:16 70° W 06:32:21 10° S visible
26 Jan 2.8 18:46:40 10° S 18:50:44 61° E 18:54:48 10° NNE visible
27 Jan 6.1 04:52:50 10° NE 04:54:04 11° ENE 04:55:19 10° E visible
27 Jan 3.0 06:27:20 10° NNW 06:31:19 51° W 06:35:17 10° S visible
27 Jan 2.8 18:49:39 10° S 18:53:47 84° E 18:57:55 10° N visible
28 Jan 5.9 04:54:54 10° NE 04:57:16 15° ENE 04:59:38 10° ESE visible
28 Jan 3.4 06:30:33 10° NNW 06:34:20 37° W 06:38:07 10° SSW visible
28 Jan 3.1 18:52:44 10° SSW 18:56:51 72° W 19:00:58 10° N visible
29 Jan 5.5 04:57:25 10° NNE 05:00:26 19° ENE 05:03:26 10° ESE visible
29 Jan 3.8 06:33:50 10° NNW 06:37:20 28° W 06:40:51 10° SSW visible
29 Jan 3.7 18:55:55 10° SSW 18:59:56 52° W 19:03:58 10° N visible
30 Jan 5.0 05:00:07 10° NNE 05:03:35 25° ENE 05:07:01 10° SE visible
30 Jan 4.1 06:37:14 10° NW 06:40:19 21° W 06:43:25 10° SW visible
30 Jan 4.4 18:59:11 10° SSW 19:03:02 38° WNW 19:06:54 10° N visible
31 Jan 4.5 05:03:55 16° NNE 05:06:42 34° ENE 05:10:27 10° SE visible
31 Jan 4.4 06:40:48 10° NW 06:43:18 16° W 06:45:47 10° SW visible
31 Jan 5.0 19:02:34 10° SW 19:06:09 28° WNW 19:09:44 10° NNW visible
01 Feb 3.9 05:08:22 32° NNE 05:09:49 45° E 05:13:46 10° SSE visible
01 Feb 4.7 06:44:44 10° WNW 06:46:15 12° W 06:47:46 10° WSW visible
01 Feb 5.5 19:06:05 10° SW 19:09:17 22° WNW 19:12:30 10° NNW visible
